Tracking 26922 objects as of 1-Feb-2023
HD Live streaming from Space Station
objects crossing your sky now

SL-8 R/B

Track SL-8 R/B now!
10-day predictions


NORAD ID: 9613
Int'l Code: 1976-122B
Perigee: 958.6 km
Apogee: 1,001.0 km
Inclination: 83.0 °
Period: 104.5 minutes
Semi major axis: 7350 km
RCS: 4.5019 m2 (large)
Launch date: December 15, 1976
Source: Commonwealth of Independent States (former USSR) (CIS)
Launch site: PLESETSK MISSILE AND SPACE COMPLEX (PKMTR)

Note: This is a ROCKET BODY
Your satellite tracking list
Your tracking list is empty




NASA's NSSDC Master Catalog

Two Line Element Set (TLE):
1 09613U 76122B   23031.48456022  .00000030  00000-0  14765-4 0  9997
2 09613  82.9512  66.4315 0028821 292.4320  67.3785 13.77532666317885
Source of the keplerian elements: AFSPC